Find Starlink 11362

NORAD ID: 61535 Int'l Des: 2024-184 Owner: SPXS Country: US Constellation: starlink operational
LEOCIRCULAR

Current View

Loading 3D Globe...

About Starlink 11362

Starlink 11362 (NORAD 61535) is a starlink constellation satellite (v2 mini d2c) launched Oct 15, 2024 by SPXS of US. It operates in LEO, CIRCULAR orbit with a mass of 960.00 kg.

About Starlink 11362

Description loading...

Upcoming Passes

Passes for default location (London). Set your location on the main map for personalized predictions.

Altitude History

Loading altitude history...

Two-Line Element Set

1 61535U 24184D 26170.97071893 .00001490 00000-0 17156-4 0 9997
2 61535 53.1595 91.9182 0001306 128.1930 231.9206 15.69713317 96487
Epoch: Jun 19, 2026 • Age: 22 hours

Current Status

Altitude 361.7 km
Velocity 7.69 km/s
Sub-Earth Point -8.49°S, 42.17°E
Launch Date Oct 15, 2024
Age 1.6 years
Type internet

Technical Details

Classification Payload
Mass 960.00 kg
Dry Mass 910.00 kg
Total Mass 960.00 kg
Length 0.30 m
Diameter 4.10 m
Span 29.00 m
Shape Box + pan
Manufacturer SPXS
Bus Type Starlink V2MD
Phase Status In Orbit
Owner/State SPXS/US

Most Searched